TimeCDT,TemperatureF,Dew PointF,Humidity,Sea Level PressureIn,VisibilityMPH,Wind Direction,Wind SpeedMPH,Gust SpeedMPH,PrecipitationIn,Events,Conditions,WindDirDegrees,DateUTC
12:56 AM,61.0,54.0,78,30.06,10.0,ENE,3.5,-,N/A,,Clear,70,2014-08-10 05:56:00
1:56 AM,60.1,54.0,80,30.06,10.0,Calm,Calm,-,N/A,,Clear,0,2014-08-10 06:56:00
2:56 AM,59.0,53.1,81,30.07,10.0,Calm,Calm,-,N/A,,Clear,0,2014-08-10 07:56:00
3:56 AM,57.9,53.1,84,30.06,7.0,Calm,Calm,-,N/A,,Clear,0,2014-08-10 08:56:00
4:56 AM,57.0,52.0,83,30.07,9.0,Calm,Calm,-,N/A,,Clear,0,2014-08-10 09:56:00
5:56 AM,57.0,52.0,83,30.06,7.0,Calm,Calm,-,N/A,,Clear,0,2014-08-10 10:56:00
6:56 AM,59.0,54.0,83,30.07,6.0,Calm,Calm,-,N/A,,Haze,0,2014-08-10 11:56:00
7:56 AM,62.1,55.9,80,30.09,8.0,West,3.5,-,N/A,,Mostly Cloudy,260,2014-08-10 12:56:00
8:56 AM,68.0,57.9,70,30.09,10.0,Calm,Calm,-,N/A,,Overcast,0,2014-08-10 13:56:00
9:56 AM,72.0,60.1,66,30.07,10.0,Calm,Calm,-,N/A,,Mostly Cloudy,0,2014-08-10 14:56:00
10:56 AM,77.0,62.1,60,30.06,10.0,SE,4.6,-,N/A,,Clear,140,2014-08-10 15:56:00
11:56 AM,81.0,63.0,54,30.05,10.0,Variable,3.5,-,N/A,,Clear,0,2014-08-10 16:56:00
12:56 PM,84.0,63.0,49,30.04,10.0,East,6.9,-,N/A,,Clear,90,2014-08-10 17:56:00
1:56 PM,84.0,61.0,46,30.03,10.0,East,5.8,-,N/A,,Clear,90,2014-08-10 18:56:00
2:56 PM,86.0,63.0,46,30.01,10.0,SSE,5.8,-,N/A,,Clear,160,2014-08-10 19:56:00
3:56 PM,82.9,62.1,49,30.00,10.0,South,6.9,-,N/A,,Overcast,170,2014-08-10 20:56:00
4:56 PM,82.9,64.0,53,29.99,10.0,SE,4.6,-,N/A,,Overcast,130,2014-08-10 21:56:00
5:56 PM,82.0,64.0,54,29.98,10.0,East,3.5,-,N/A,,Clear,100,2014-08-10 22:56:00
6:56 PM,81.0,66.9,62,29.97,10.0,Calm,Calm,-,N/A,,Clear,0,2014-08-10 23:56:00
7:56 PM,78.1,66.0,66,29.97,10.0,Calm,Calm,-,N/A,,Overcast,0,2014-08-11 00:56:00
8:56 PM,73.0,64.9,76,29.97,10.0,NE,3.5,-,N/A,,Partly Cloudy,50,2014-08-11 01:56:00
9:56 PM,73.0,66.0,79,29.98,10.0,Calm,Calm,-,N/A,,Overcast,0,2014-08-11 02:56:00
10:56 PM,70.0,64.0,81,29.98,6.0,Calm,Calm,-,N/A,,Haze,0,2014-08-11 03:56:00
11:56 PM,68.0,62.1,81,29.97,8.0,Calm,Calm,-,N/A,,Clear,0,2014-08-11 04:56:00